Theta_e
314 315 316 315 313 312 315 320 313 320 321 308 311 307 309 304 310 312 310 313 312 311 311 311 310 309 312 315 315 310 313 311 308 309 314 315 314 312 312 305 304 308 306 305
315 315 315 314 312 312 321 318 318 324 317 305 308 312 309 310 309 309 309 308 313 313 310 308 311 312 316 316 315 312 313 309 305 307 311 314 310 312 312 312 311 308 304 307
316 315 314 313 312 313 319 318 313 317 316 314 310 309 308 306 310 308 310 310 312 310 308 313 310 311 315 316 316 325 319 311 308 305 307 311 308 309 311 311 306 307 307 311
317 316 314 314 313 314 318 319 313 316 312 314 312 311 310 308 306 309 310 308 307 308 307 308 309 313 314 315 314 316 315 309 310 312 312 310 309 308 309 308 310 307 309 311
317 317 315 315 314 314 320 314 314 316 314 315 313 309 310 308 310 309 308 307 309 309 307 308 308 311 313 313 316 315 317 310 312 310 311 309 307 308 309 309 310 311 311 311
317 317 316 316 315 313 319 321 319 315 310 312 310 310 310 310 312 313 314 313 312 309 310 314 316 316 317 317 315 314 314 311 309 306 310 309 304 308 309 309 311 311 307 314
318 318 318 318 317 313 315 317 317 311 307 309 308 309 311 310 312 310 313 314 312 316 320 319 316 314 316 317 317 317 313 313 311 306 308 299 309 314 312 310 311 313 313 314
318 318 319 319 319 315 316 315 314 311 306 310 309 308 309 312 313 311 312 314 316 318 316 311 307 306 308 311 315 315 316 314 308 304 304 308 309 312 311 310 310 316 315 318
318 319 319 319 319 316 318 315 313 307 303 308 313 310 309 307 308 310 312 317 318 316 311 308 303 299 304 305 308 315 315 316 310 307 302 300 310 314 317 316 307 318 319 319
318 318 319 320 320 315 317 315 314 309 302 308 313 309 308 311 310 309 310 312 313 315 308 304 302 302 309 303 304 307 308 310 307 306 303 308 314 316 318 305 311 318 319 321
317 318 318 319 320 317 316 315 317 310 303 307 312 314 311 311 312 306 309 310 310 308 304 305 305 304 307 306 311 310 307 306 306 307 304 302 318 316 310 317 321 319 321 322
316 317 317 319 319 317 315 310 316 315 306 308 316 317 318 317 315 314 314 310 311 314 310 309 310 306 308 309 304 315 308 311 308 310 309 321 321 319 321 321 320 319 321 322
315 315 316 317 318 318 316 313 313 310 305 306 310 311 316 320 321 322 309 313 314 313 314 312 312 308 311 306 307 311 315 318 313 315 316 317 320 321 322 322 321 323 323 324
313 314 315 316 316 316 316 312 314 311 306 300 308 317 317 320 322 320 320 318 315 316 314 309 311 307 317 310 313 312 314 318 316 315 318 319 320 321 321 322 323 322 324 325
313 313 314 315 316 314 315 316 315 316 306 299 303 312 316 319 320 316 319 317 315 310 309 307 306 312 313 316 316 311 317 315 312 310 320 320 320 322 323 322 323 324 324 325
312 313 313 312 311 311 310 304 312 317 312 301 296 314 313 318 317 317 316 316 313 312 310 308 310 315 313 309 309 317 319 322 324 322 325 322 323 324 323 323 325 325 325 326
311 311 312 311 311 313 306 303 308 311 312 301 299 304 313 316 314 313 313 315 312 311 310 308 308 311 314 311 307 315 319 323 323 325 323 321 322 320 325 325 326 324 326 327
311 311 311 311 311 310 308 314 310 311 307 304 297 301 306 313 307 306 312 307 310 309 309 310 307 312 312 307 315 318 320 322 322 323 324 322 326 326 325 326 326 325 325 326
311 311 311 310 309 306 310 313 312 311 306 298 299 295 295 312 309 309 309 309 303 310 307 308 310 308 309 311 314 316 319 319 319 322 323 323 323 324 325 325 325 326 325 327
310 310 306 303 308 314 314 310 303 303 303 303 300 303 296 308 306 304 305 306 304 301 306 310 306 305 314 317 318 320 320 320 321 317 318 320 321 323 325 325 327 327 326 328
311 308 304 314 314 310 306 302 300 302 299 303 304 302 300 308 300 305 309 304 305 301 304 303 303 304 311 317 319 321 321 321 323 324 324 323 324 323 325 326 326 326 326 329
308 307 310 312 309 305 300 299 302 299 297 304 301 304 306 310 311 307 310 303 306 299 312 305 301 314 321 320 320 322 323 321 320 323 323 323 325 326 326 327 328 328 329 332
312 305 302 304 305 296 296 294 297 297 303 305 304 305 309 310 310 308 308 302 302 311 305 303 310 321 323 326 326 325 327 324 321 322 323 323 325 326 326 326 326 329 330 332
302 302 294 299 298 301 300 303 300 306 309 309 309 307 305 307 306 307 301 306 307 299 298 301 315 321 323 326 326 323 322 323 320 320 322 322 324 326 325 326 329 329 331 332
302 302 295 298 304 306 309 310 310 312 312 314 312 311 312 308 305 307 306 303 299 301 299 310 320 325 326 327 328 327 326 324 322 321 321 322 323 325 326 326 326 329 333 332
305 302 300 303 303 306 310 308 309 314 311 312 315 307 305 304 305 302 301 300 300 306 313 317 323 326 327 327 328 328 328 329 329 328 325 324 324 324 325 327 328 331 332 332
300 300 306 305 304 305 307 309 310 314 311 309 311 302 302 307 302 302 306 305 310 315 319 322 326 326 326 327 326 326 327 327 328 330 331 331 332 329 326 327 329 327 332 336
Wind_Speed
15 15 16 15 16 21 12 6 6 6 4 8 10 14 21 8 15 12 15 9 17 13 17 13 18 15 14 15 14 15 17 9 13 16 14 7 12 9 9 7 9 7 9 8
15 15 14 14 14 11 8 6 9 8 7 8 12 14 16 15 13 19 17 16 14 11 15 13 15 15 5 10 13 11 15 12 10 13 15 12 10 14 14 14 13 10 11 9
13 14 14 13 13 10 7 6 5 7 8 11 13 15 16 15 16 20 17 16 17 12 13 14 13 15 11 9 13 5 10 15 14 2 14 3 14 9 5 14 11 8 9 16
14 11 13 12 13 11 7 6 4 7 5 5 10 14 10 13 17 12 15 15 15 14 15 16 16 15 11 9 7 8 13 18 10 11 16 4 8 8 8 11 15 17 6 7
13 11 11 11 12 11 7 7 5 7 11 12 10 9 13 17 13 13 15 13 15 18 17 17 14 15 21 14 14 15 17 17 13 13 6 6 10 10 12 11 12 13 9 10
13 10 9 11 8 6 6 6 7 6 8 11 11 11 12 14 13 9 11 11 10 5 7 11 15 17 19 14 18 17 18 15 13 14 13 9 10 14 13 10 10 10 11 4
12 10 10 10 9 4 4 6 8 7 11 9 10 10 13 11 11 11 9 4 5 5 14 15 11 14 18 18 15 15 17 15 12 12 11 13 11 4 6 9 9 9 10 10
11 10 11 9 7 7 3 3 5 5 8 11 8 8 13 13 12 11 15 13 9 10 11 8 8 13 18 21 16 18 16 15 13 11 13 11 10 8 9 9 10 9 9 7
10 9 10 9 9 9 5 3 0 2 5 6 12 10 9 10 10 12 14 10 9 5 6 8 13 14 15 21 20 16 17 14 12 10 13 16 12 3 10 3 10 10 7 5
8 9 10 9 7 12 8 2 2 1 3 10 14 8 5 7 10 9 3 4 13 8 8 10 12 15 19 20 23 12 16 13 15 14 10 11 4 7 9 8 4 4 8 8
9 9 8 8 7 13 6 0 6 2 3 10 14 14 12 10 9 9 8 8 10 8 10 12 11 12 15 19 18 23 19 16 15 14 14 14 9 10 10 2 3 2 5 7
12 10 9 10 5 11 6 2 2 2 3 9 13 15 17 15 15 8 6 10 5 2 5 6 7 13 15 17 14 12 19 17 15 14 12 10 10 10 9 10 4 3 4 5
11 11 12 9 8 10 8 1 3 1 3 8 12 14 17 20 19 15 9 7 5 7 3 4 5 11 7 10 13 17 22 19 16 13 12 4 12 8 7 10 4 8 7 5
10 11 12 11 4 7 10 2 3 1 3 5 7 7 12 11 14 19 15 13 5 12 5 7 3 3 13 10 8 6 9 10 12 12 3 9 9 9 10 8 7 5 6 7
10 11 10 10 7 0 4 3 5 6 3 3 8 21 21 16 13 15 18 14 11 7 5 8 10 6 11 8 6 7 10 11 12 8 12 11 10 11 11 11 9 8 8 8
10 8 7 5 3 3 1 3 5 2 3 3 5 7 13 12 13 21 20 12 9 9 10 8 9 9 9 9 6 7 6 7 11 8 5 4 0 4 14 12 11 10 10 9
10 9 7 6 3 4 3 2 1 4 2 3 4 7 6 12 6 6 4 6 5 6 11 10 11 4 8 9 7 10 16 8 6 1 2 2 3 6 11 10 10 9 10 10
11 10 9 8 6 8 8 3 12 2 2 3 4 6 5 7 6 5 5 2 5 7 6 9 12 6 8 11 18 8 13 11 9 7 3 3 3 7 6 9 11 11 10 10
12 12 10 3 4 3 1 4 8 3 2 3 3 2 3 8 3 4 5 2 5 5 10 11 3 10 6 7 12 15 13 11 12 10 9 8 7 6 11 12 13 13 12 11
12 4 3 3 3 0 3 5 3 3 4 4 4 3 4 3 3 3 7 6 6 7 10 9 13 13 16 17 16 15 16 15 13 12 13 11 10 8 11 13 13 13 13 12
3 2 2 3 9 3 3 4 5 6 5 5 2 6 4 4 3 5 7 3 3 5 5 10 6 14 15 18 15 14 11 12 11 13 12 10 9 12 12 14 13 12 9 11
6 6 5 3 3 4 5 5 2 4 3 4 3 4 5 3 2 4 4 5 5 5 9 6 4 5 5 4 7 11 15 19 16 10 8 3 6 10 9 3 6 7 8 10
2 3 3 4 4 5 6 4 3 2 2 4 3 3 2 2 1 3 4 4 2 3 2 4 3 4 3 1 4 7 10 12 15 13 8 7 6 5 4 6 6 10 9 9
3 4 4 6 5 4 3 2 3 5 6 5 5 4 5 3 2 3 4 4 4 2 3 0 4 4 3 0 1 3 5 9 14 16 13 12 9 9 5 6 7 6 8 9
4 4 5 5 4 6 3 5 5 4 5 4 2 4 5 6 6 10 8 7 6 4 2 5 5 5 6 7 9 6 6 4 5 8 13 15 16 12 10 8 7 7 7 9
5 6 7 5 8 3 1 6 2 3 6 5 1 4 6 8 4 3 5 3 3 3 8 10 9 10 9 8 8 8 8 7 7 5 4 7 8 11 11 10 8 8 7 7
5 5 7 7 6 7 7 4 7 5 6 3 1 5 3 4 4 1 4 5 2 7 8 10 10 9 8 8 8 9 9 8 7 7 6 5 1 7 11 12 11 11 10 9
Wind_Direction
336 333 330 330 333 324 299 288 258 130 194 225 221 231 237 268 259 242 248 282 286 249 248 231 219 214 202 188 220 199 230 238 177 202 209 270 305 284 244 224 188 293 328 126
331 331 329 327 332 345 315 274 289 146 220 248 234 224 251 249 233 242 227 238 250 261 265 245 250 241 234 154 224 201 215 243 187 200 182 204 241 248 268 277 282 171 270 116
316 329 331 323 326 329 295 276 270 184 205 259 288 284 222 238 225 260 257 239 238 245 254 246 243 239 166 190 223 66 268 236 253 121 320 166 199 222 256 278 277 259 243 139
320 320 328 324 320 323 287 242 277 17 279 243 236 261 283 269 240 211 249 251 248 240 245 239 229 258 197 201 164 224 234 243 234 180 236 279 304 292 277 258 272 284 76 259
316 313 320 319 321 321 261 299 323 349 288 289 268 253 254 260 258 247 224 231 238 229 247 255 260 224 249 196 186 223 219 247 270 296 225 262 271 266 264 253 256 257 290 287
318 305 309 309 322 314 291 1 269 259 283 276 268 256 278 249 259 296 281 323 275 237 272 295 319 319 309 231 201 211 225 238 237 240 255 202 252 251 252 247 254 254 250 273
317 313 304 302 310 238 322 319 297 284 261 247 272 326 296 284 276 246 254 206 274 12 349 317 285 279 277 269 266 197 220 233 236 246 256 224 253 39 338 317 300 281 272 279
310 306 302 297 303 218 261 318 297 306 275 287 250 331 318 291 266 246 257 260 266 306 294 291 250 246 250 245 239 253 214 215 227 246 241 233 206 194 229 240 256 255 258 255
301 311 305 300 295 190 238 254 53 322 316 258 322 289 260 279 277 276 228 235 259 273 263 259 242 232 213 221 217 227 249 203 236 218 257 256 240 205 148 294 264 229 186 218
328 318 318 315 314 182 240 165 190 278 248 280 294 281 319 296 272 260 270 272 244 229 249 244 245 247 245 220 210 190 231 224 217 226 227 241 230 117 108 227 58 103 172 188
330 333 329 325 325 190 214 112 188 211 238 284 270 286 282 274 284 294 21 261 209 237 263 241 235 242 245 251 231 198 208 205 225 233 232 233 140 154 193 9 124 264 181 192
338 339 342 322 295 185 200 213 172 180 254 291 310 282 285 273 268 297 276 322 20 139 284 255 305 261 253 242 240 183 213 219 216 230 223 193 147 214 185 252 167 192 190 195
345 346 340 336 339 192 191 186 136 189 269 267 240 252 248 244 242 247 241 259 291 247 183 252 296 283 253 278 241 241 210 211 225 236 257 123 181 185 206 204 193 168 197 197
341 340 341 330 302 200 202 221 177 239 299 275 291 274 243 256 232 223 236 241 233 301 247 303 256 283 284 245 283 221 251 179 212 218 245 191 187 202 195 209 177 213 174 166
333 337 342 0 2 296 264 260 223 221 256 309 297 313 269 246 237 231 210 227 219 239 248 247 255 204 246 273 320 270 158 204 208 228 193 193 186 205 227 186 196 202 184 175
333 328 335 354 18 351 288 277 22 235 160 272 284 325 288 251 249 212 226 218 232 208 228 252 255 258 295 281 225 241 97 39 22 52 44 197 133 285 194 200 192 197 188 177
316 319 311 304 283 261 236 290 89 354 121 239 271 270 292 227 210 214 206 212 208 202 224 228 262 296 212 273 281 354 352 32 16 16 292 193 160 243 204 195 189 176 186 167
311 307 297 283 275 271 260 231 204 172 255 259 263 280 257 268 175 160 151 183 210 213 222 215 242 177 226 242 250 265 261 294 297 278 234 332 25 237 186 198 178 173 180 163
302 300 290 274 222 234 65 119 137 188 276 283 263 276 302 295 349 119 140 300 211 226 208 223 250 238 234 229 255 251 244 267 287 278 256 215 220 215 218 202 178 190 174 183
299 262 259 217 197 7 266 162 166 192 202 222 254 118 259 4 319 165 167 214 202 203 203 203 221 245 236 228 242 245 241 239 263 245 250 245 220 234 199 200 188 192 189 177
219 222 240 277 133 199 213 218 215 186 210 201 215 187 248 147 238 222 198 172 244 221 183 201 213 227 219 223 211 227 236 248 256 254 247 243 239 226 217 199 201 192 191 157
339 306 292 297 247 235 234 209 227 222 239 184 208 213 223 253 281 251 227 198 205 198 218 219 220 123 140 148 219 235 228 227 242 241 226 231 234 239 210 174 150 185 176 145
204 230 241 231 219 242 231 229 111 346 251 209 208 211 218 201 271 304 282 275 319 71 199 252 78 103 102 188 230 235 224 223 223 228 232 261 155 245 187 187 152 196 166 163
240 251 245 249 217 250 25 62 203 208 226 220 197 223 192 100 359 306 266 287 56 268 261 31 27 83 91 326 253 208 167 188 204 217 218 221 208 196 172 225 165 164 169 164
257 241 247 238 285 241 284 231 223 223 249 265 268 208 202 184 239 184 207 152 213 216 4 179 149 99 84 60 39 48 76 99 161 205 216 217 214 200 209 226 188 175 166 171
249 241 254 285 279 270 286 291 41 275 309 294 93 278 224 213 231 208 228 235 73 16 88 106 105 84 77 72 80 66 49 61 58 59 180 211 215 213 207 202 170 164 167 166
267 252 282 244 269 301 283 211 315 353 317 311 210 251 305 253 253 124 319 39 321 86 80 82 87 93 79 73 75 74 70 63 62 66 71 70 132 208 212 183 183 186 173 177